Weather History for Huntsville, AL

Change the Weather History Date:

Monday, February 25, 2013

  Actual Average Record
Temperature  
Mean Temperature 50 °F 48 °F  
Max Temperature 61 °F 59 °F 80 °F (1918)
Min Temperature 39 °F 38 °F 7 °F (1967)
Degree Days  
Heating Degree Days 15 17  
Month to date heating degree days 506 494  
Since 1 July heating degree days 2212 2404  
Cooling Degree Days 0 0  
Month to date cooling degree days 0 0  
Year to date cooling degree days 6 0  
Moisture  
Dew Point 38 °F    
Average Humidity 64    
Maximum Humidity 86    
Minimum Humidity 42    
Precipitation  
Precipitation 0.05 in 0.18 in 1.80 in (1934)
Month to date precipitation 3.11 4.31  
Year to date precipitation 11.70 9.20  
Snow  
Snow 0.00 in - - ()
Month to date snowfall T  
Since 1 July snowfall 0.7  
Snow Depth 0.00 in    
Sea Level Pressure  
Sea Level Pressure 29.79 in    
Wind  
Wind Speed 15 mph (ESE)    
Max Wind Speed 35 mph    
Max Gust Speed 44 mph    
Visibility 10 miles    
Events Rain    
T = Trace of Precipitation, MM = Missing Value Source: NWS Daily Summary

Daily Weather History Graph

Daily Weather History Graph

Search for Another Location

Airport:

Trip Planner

Search our weather history database for the weather conditions in past years. The results will help you decide how hot, cold, wet, or windy it might be!

Date:

Astronomy

Feb. 25, 2013 Rise Set
Actual Time 6:20 AM CST 5:39 PM CST
Civil Twilight 5:55 AM CST 6:05 PM CST
Nautical Twilight 5:26 AM CST 6:34 PM CST
Astronomical Twilight 4:57 AM CST 7:03 PM CST
Moon 5:49 PM CST (2/25) 5:52 AM CST (2/25)
Length of Visible Light 12h 09m
Length of Day
11h 18m
Full, 100% of the Moon is Illuminated
Feb 25
Full
Feb 25
Full
Mar 4
Last Quarter
Mar 11
New
Mar 19
First Quarter

Hourly Weather History & Observations

Time (CST) Temp. Windchill Dew Point Humidity Pressure Visibility Wind Dir Wind Speed Gust Speed Precip Events Conditions
12:53 AM 41.0 °F 39.0 °F 32.0 °F 70% 29.95 in 10.0 mi ESE 3.5 mph - N/A   Clear
1:53 AM 43.0 °F - 30.0 °F 60% 29.95 in 10.0 mi Calm Calm - N/A   Clear
2:53 AM 39.9 °F 37.8 °F 33.1 °F 77% 29.92 in 10.0 mi ESE 3.5 mph - N/A   Clear
3:53 AM 39.0 °F 36.8 °F 33.1 °F 79% 29.91 in 10.0 mi SE 3.5 mph - N/A   Clear
4:53 AM 41.0 °F - 32.0 °F 70% 29.91 in 10.0 mi Calm Calm - N/A   Clear
5:53 AM 42.1 °F 40.2 °F 30.9 °F 65% 29.93 in 10.0 mi ENE 3.5 mph - N/A   Overcast
6:53 AM 39.9 °F 35.1 °F 33.1 °F 77% 29.94 in 10.0 mi ESE 6.9 mph - N/A   Mostly Cloudy
7:53 AM 45.0 °F 42.6 °F 30.9 °F 58% 29.94 in 10.0 mi East 4.6 mph - N/A   Mostly Cloudy
8:53 AM 50.0 °F - 28.9 °F 44% 29.93 in 10.0 mi ESE 11.5 mph - N/A   Mostly Cloudy
9:53 AM 51.1 °F - 30.0 °F 44% 29.91 in 10.0 mi ESE 16.1 mph - N/A   Mostly Cloudy
10:53 AM 55.0 °F - 33.1 °F 43% 29.89 in 10.0 mi ESE 21.9 mph 29.9 mph N/A   Mostly Cloudy
11:53 AM 57.9 °F - 37.9 °F 47% 29.87 in 10.0 mi SE 20.7 mph 24.2 mph N/A   Mostly Cloudy
12:26 PM 57.2 °F - 37.4 °F 48% 29.86 in 10.0 mi ESE 20.7 mph 27.6 mph N/A   Overcast
12:44 PM 55.4 °F - 39.2 °F 54% 29.85 in 10.0 mi ESE 18.4 mph 26.5 mph N/A   Overcast
12:53 PM 57.0 °F - 39.0 °F 51% 29.85 in 10.0 mi ESE 19.6 mph - N/A   Mostly Cloudy
1:53 PM 60.1 °F - 41.0 °F 49% 29.81 in 10.0 mi ESE 23.0 mph 28.8 mph N/A   Scattered Clouds
2:53 PM 61.0 °F - 41.0 °F 48% 29.78 in 10.0 mi ESE 13.8 mph 23.0 mph N/A   Scattered Clouds
3:53 PM 59.0 °F - 42.1 °F 53% 29.76 in 10.0 mi SE 19.6 mph - N/A   Scattered Clouds
4:53 PM 55.9 °F - 39.9 °F 55% 29.73 in 10.0 mi ESE 16.1 mph 23.0 mph N/A   Mostly Cloudy
5:53 PM 54.0 °F - 39.9 °F 59% 29.75 in 10.0 mi SE 24.2 mph 32.2 mph N/A   Overcast
6:53 PM 53.1 °F - 39.9 °F 61% 29.74 in 10.0 mi ESE 20.7 mph 28.8 mph N/A   Overcast
7:53 PM 52.0 °F - 39.9 °F 63% 29.71 in 10.0 mi ESE 20.7 mph 28.8 mph N/A   Overcast
8:25 PM 51.8 °F - 41.0 °F 67% 29.66 in 10.0 mi ESE 25.3 mph 34.5 mph N/A   Overcast
8:53 PM 51.1 °F - 41.0 °F 68% 29.68 in 10.0 mi SE 19.6 mph 33.4 mph N/A   Overcast
9:05 PM 51.8 °F - 41.0 °F 67% 29.68 in 10.0 mi SE 19.6 mph 32.2 mph N/A   Overcast
9:53 PM 48.9 °F - 44.1 °F 83% 29.64 in 8.0 mi SE 24.2 mph 39.1 mph 0.00 in Rain Light Rain
10:00 PM 48.2 °F - 44.6 °F 87% 29.63 in 8.0 mi ESE 27.6 mph 34.5 mph 0.00 in Rain Light Rain
10:53 PM 48.0 °F - 45.0 °F 89% 29.58 in 8.0 mi ESE 28.8 mph 40.3 mph 0.05 in Rain Light Rain
11:04 PM 48.2 °F - 44.6 °F 87% 29.55 in 10.0 mi ESE 28.8 mph 38.0 mph 0.00 in Rain Light Rain
11:53 PM 48.0 °F - 45.0 °F 89% 29.54 in 10.0 mi SE 26.5 mph 40.3 mph 0.00 in   Overcast